Flag for Ukraine Weather past 2 weeks in Luhansk, Ukraine

Now
48 °F

Sprinkles. Mostly cloudy.


Feels Like: 46 °F
Forecast: 36 / 46 °F
Wind: 6 mph from Northwest

Location: Rostov-Na-Donu

Current Time: Apr 19, 2015 at 2:04:00 PM

Latest Report: Apr 19, 2015 at 1:00 PM


Visibility: N/A

Pressure: 29.62 "Hg

Humidity: 82%

Dew point: 43 °F

Location of LuhanskLocation

Historic Weather in Luhansk — Graph

°F

Luhansk temperature yesterday

Maximum temperature yesterday: 70 °F (at 3:00 PM)
Minimum temperature yesterday: 50 °F (at 2:00 AM)
Average temperature yesterday: 56 °F

Past Weeks' High & Low Weather Summary

 TemperatureHumidityPressure
High70 °F (Apr 18, 3:00 PM)100% (Apr 6, 3:00 AM)30.18 "Hg (Apr 6, 3:00 AM)
Low34 °F (Apr 6, 3:00 AM)28% (Apr 10, 3:00 PM)29.56 "Hg (Apr 18, 3:00 PM)
Average48 °F68%29.94 "Hg
* Reported Apr 4 1:00 PM — Apr 19 1:00 PM, Luhansk, Weather by CustomWeather, © 2015

Note: Actual official high and low records may vary slightly from our data, if they occured in-between our weather recording intervals... More about our weather records

Advertising

Luhansk weather history for previous 24 hours

 ConditionsComfort  
Time TempWeatherWind HumidityBarometerVisibility
1:00 PM
Sun, Apr 19
48 °FSprinkles. Mostly cloudy.6 mph82%29.62 "HgN/A
12:00 PM48 °FSprinkles. Mostly cloudy.6 mph76%29.62 "HgN/A
11:00 AM48 °FSprinkles. Mostly cloudy.3 mph82%29.65 "HgN/A
10:00 AM50 °FSprinkles. Mostly cloudy.3 mph82%29.65 "HgN/A
9:00 AM50 °FSprinkles. Mostly cloudy.6 mph88%29.65 "HgN/A
8:30 AM50 °FLight rain. More clouds than sun.6 mph82%29.65 "HgN/A
8:00 AM50 °FLight rain. More clouds than sun.3 mph82%29.65 "HgN/A
7:30 AM48 °FLight rain. More clouds than sun.3 mph82%29.68 "HgN/A
7:00 AM48 °FOvercast.3 mph82%29.68 "HgN/A
6:30 AM48 °FPartly sunny.3 mph82%29.68 "HgN/A
6:00 AM48 °FPassing clouds.3 mph82%29.68 "HgN/A
5:30 AM48 °FPartly cloudy.3 mph82%29.68 "HgN/A
5:00 AM48 °FPartly cloudy.3 mph82%29.68 "HgN/A
4:30 AM48 °FMostly cloudy.6 mph87%29.68 "HgN/A
4:00 AM50 °FMostly cloudy.6 mph82%29.68 "HgN/A
3:30 AM50 °FMostly cloudy.6 mph82%29.71 "HgN/A
3:00 AM50 °FPassing clouds.6 mph88%29.71 "HgN/A
2:30 AM50 °FPartly cloudy.6 mph82%29.71 "HgN/A
2:00 AM50 °FPartly cloudy.3 mph82%29.68 "HgN/A
1:30 AM50 °FPassing clouds.3 mph88%29.71 "HgN/A
1:00 AM50 °FSprinkles. Partly cloudy.6 mph88%29.71 "HgN/A
12:30 AM50 °FPassing clouds.6 mph88%29.71 "HgN/A
12:00 AM52 °FLight rain. Passing clouds.6 mph82%29.71 "HgN/A
11:30 PM
Sat, Apr 18
52 °FLight rain. Passing clouds.6 mph82%29.68 "HgN/A
11:00 PM52 °FPassing clouds.6 mph82%29.68 "HgN/A
10:30 PM52 °FPassing clouds.8 mph82%29.68 "HgN/A
10:00 PM52 °FPassing clouds.8 mph82%29.68 "HgN/A
9:30 PM54 °FPartly cloudy.10 mph82%29.65 "HgN/A
9:00 PM54 °FMostly cloudy.10 mph82%29.65 "HgN/A
8:30 PM55 °FOvercast.10 mph82%29.62 "HgN/A
8:00 PM55 °FCloudy.10 mph82%29.62 "HgN/A
7:00 PM59 °FBroken clouds.20 mph77%29.59 "HgN/A
6:00 PM61 °FPartly sunny.20 mph72%29.56 "HgN/A
5:00 PM64 °FPartly sunny.22 mph60%29.56 "HgN/A
4:00 PM66 °FBroken clouds.22 mph56%29.56 "HgN/A
3:00 PM70 °FPartly sunny.31 mph46%29.56 "HgN/A
2:00 PM68 °FPartly sunny.24 mph46%29.59 "HgN/A
Weather by CustomWeather, © 2015

See weather overviewHow to use our weather pages